When you browse on this site, cookies collect data to enhance your experience and personalize the content and advertising you see.
Visit our Privacy Policy to learn more. By continuing to use the site, you agree to this use of cookies and data.
  • In Switzerland
  • List of Countries
  • For 7 days
  • Water Temperature
  • Weather Map
  • Weather Widgets
  • user-avatar
    Login

    Hourly Weather Hrazdan

    Today, 18 October, Friday

    Time Temperature Precipitation Wind Pressure Humidity
    00:00 +11°C° 0 mm 1 mps 616 mmHg 36%
    01:00 +11°C° 0 mm 1 mps 616 mmHg 34%
    02:00 +11°C° 0 mm 1 mps 616 mmHg 32%
    03:00 +10°C° 0 mm 1 mps 616 mmHg 30%
    04:00 +10°C° 0 mm 1 mps 616 mmHg 29%
    05:00 +10°C° 0 mm 1 mps 616 mmHg 28%
    06:00 +10°C° 0 mm 1 mps 616 mmHg 28%
    07:00 +12°C° 0 mm 1 mps 616 mmHg 26%
    08:00 +14°C° 0 mm 1 mps 617 mmHg 25%
    09:00 +18°C° 0 mm 1 mps 618 mmHg 23%
    10:00 +19°C° 0 mm 1 mps 618 mmHg 23%
    11:00 +19°C° 0 mm 2 mps 618 mmHg 22%
    12:00 +20°C° 0 mm 3 mps 618 mmHg 22%
    13:00 +19°C° 0 mm 3 mps 618 mmHg 24%
    14:00 +19°C° 0 mm 3 mps 617 mmHg 25%
    15:00 +19°C° 0 mm 3 mps 617 mmHg 27%
    16:00 +17°C° 0 mm 2 mps 616 mmHg 32%
    17:00 +15°C° 0 mm 1 mps 615 mmHg 37%
    18:00 +13°C° 0 mm 1 mps 615 mmHg 42%
    19:00 +13°C° 0 mm 1 mps 615 mmHg 43%
    20:00 +13°C° 0 mm 1 mps 615 mmHg 44%
    21:00 +12°C° 0 mm 1 mps 615 mmHg 44%
    22:00 +12°C° 0 mm 1 mps 615 mmHg 46%
    23:00 +12°C° 0 mm 1 mps 615 mmHg 47%

    Tomorrow, 19 October, Saturday

    Time Temperature Precipitation Wind Pressure Humidity
    00:00 +11°C° 0 mm 1 mps 615 mmHg 49%
    01:00 +11°C° 0 mm 1 mps 614 mmHg 50%
    02:00 +11°C° 0 mm 1 mps 614 mmHg 51%
    03:00 +11°C° 0 mm 1 mps 614 mmHg 52%
    04:00 +10°C° 0 mm 1 mps 614 mmHg 52%
    05:00 +10°C° 0 mm 1 mps 614 mmHg 53%
    06:00 +10°C° 0 mm 1 mps 614 mmHg 53%
    07:00 +12°C° 0 mm 1 mps 615 mmHg 48%
    08:00 +14°C° 0 mm 1 mps 616 mmHg 43%
    09:00 +16°C° 0 mm 1 mps 617 mmHg 38%
    10:00 +18°C° 0 mm 1 mps 617 mmHg 36%
    11:00 +18°C° 0 mm 2 mps 617 mmHg 34%
    12:00 +19°C° 0 mm 2 mps 617 mmHg 32%
    13:00 +19°C° 0 mm 2 mps 617 mmHg 32%
    14:00 +19°C° 0 mm 2 mps 617 mmHg 33%
    15:00 +19°C° 0 mm 2 mps 616 mmHg 33%
    16:00 +17°C° 0.1 mm 2 mps 616 mmHg 39%
    17:00 +15°C° 0.1 mm 1 mps 615 mmHg 45%
    18:00 +13°C° 0.1 mm 1 mps 614 mmHg 51%
    19:00 +13°C° 0.1 mm 1 mps 615 mmHg 56%
    20:00 +12°C° 0.1 mm 1 mps 615 mmHg 61%
    21:00 +11°C° 0.1 mm 1 mps 615 mmHg 66%
    22:00 +11°C° 0 mm 1 mps 615 mmHg 67%
    23:00 +11°C° 0 mm 1 mps 615 mmHg 69%

    Day after tomorrow, 20 October, Sunday

    Time Temperature Precipitation Wind Pressure Humidity
    00:00 +11°C° 0 mm 1 mps 615 mmHg 70%
    01:00 +10°C° 0 mm 1 mps 615 mmHg 71%
    02:00 +10°C° 0 mm 1 mps 615 mmHg 71%
    03:00 +10°C° 0 mm 1 mps 614 mmHg 72%
    04:00 +10°C° 0 mm 1 mps 615 mmHg 72%
    05:00 +9°C° 0 mm 1 mps 615 mmHg 73%
    06:00 +9°C° 0 mm 1 mps 615 mmHg 74%
    07:00 +11°C° 0 mm 1 mps 615 mmHg 68%
    08:00 +13°C° 0 mm 2 mps 616 mmHg 62%
    09:00 +14°C° 0 mm 2 mps 617 mmHg 56%
    10:00 +15°C° 0.4 mm 2 mps 617 mmHg 53%
    11:00 +16°C° 0.4 mm 2 mps 617 mmHg 49%
    12:00 +18°C° 0.4 mm 2 mps 617 mmHg 45%
    13:00 +17°C° 0.7 mm 2 mps 617 mmHg 46%
    14:00 +17°C° 0.7 mm 2 mps 617 mmHg 47%
    15:00 +17°C° 0.7 mm 2 mps 616 mmHg 47%
    16:00 +15°C° 0.3 mm 2 mps 616 mmHg 57%
    17:00 +14°C° 0.3 mm 2 mps 615 mmHg 67%
    18:00 +12°C° 0.3 mm 2 mps 615 mmHg 76%
    19:00 +10°C° 0.1 mm 2 mps 615 mmHg 79%
    20:00 +10°C° 0.1 mm 2 mps 615 mmHg 82%
    21:00 +10°C° 0.1 mm 2 mps 615 mmHg 85%
    22:00 +9°C° 0 mm 2 mps 615 mmHg 86%
    23:00 +9°C° 0 mm 2 mps 615 mmHg 86%

    21 October, Monday

    Time Temperature Precipitation Wind Pressure Humidity
    00:00 +9°C° 0 mm 2 mps 615 mmHg 86%
    01:00 +9°C° 0 mm 2 mps 615 mmHg 86%
    02:00 +9°C° 0 mm 2 mps 615 mmHg 86%
    03:00 +8°C° 0 mm 2 mps 615 mmHg 87%
    04:00 +8°C° 0 mm 2 mps 615 mmHg 86%
    05:00 +8°C° 0 mm 2 mps 615 mmHg 85%
    06:00 +8°C° 0 mm 2 mps 615 mmHg 85%
    07:00 +9°C° 0 mm 2 mps 616 mmHg 81%
    08:00 +10°C° 0 mm 2 mps 616 mmHg 76%
    09:00 +12°C° 0 mm 2 mps 617 mmHg 72%
    10:00 +13°C° 0 mm 2 mps 617 mmHg 68%
    11:00 +13°C° 0 mm 2 mps 617 mmHg 64%
    12:00 +14°C° 0 mm 2 mps 617 mmHg 60%
    13:00 +15°C° 0.2 mm 2 mps 616 mmHg 60%
    14:00 +15°C° 0.2 mm 2 mps 616 mmHg 60%
    15:00 +15°C° 0.2 mm 2 mps 616 mmHg 60%
    16:00 +13°C° 0.3 mm 2 mps 616 mmHg 68%
    17:00 +12°C° 0.3 mm 2 mps 615 mmHg 76%
    18:00 +9°C° 0.3 mm 2 mps 615 mmHg 83%
    19:00 +9°C° 0 mm 2 mps 615 mmHg 84%
    20:00 +9°C° 0 mm 2 mps 615 mmHg 86%
    21:00 +8°C° 0 mm 2 mps 615 mmHg 87%
    22:00 +8°C° 0 mm 2 mps 615 mmHg 87%
    23:00 +8°C° 0 mm 2 mps 615 mmHg 87%

    22 October, Tuesday

    Time Temperature Precipitation Wind Pressure Humidity
    00:00 +8°C° 0 mm 2 mps 615 mmHg 87%
    01:00 +8°C° 0 mm 2 mps 615 mmHg 87%
    02:00 +8°C° 0 mm 2 mps 615 mmHg 87%
    03:00 +8°C° 0 mm 2 mps 615 mmHg 86%
    04:00 +8°C° 0 mm 2 mps 615 mmHg 87%
    05:00 +8°C° 0 mm 2 mps 615 mmHg 87%
    06:00 +7°C° 0 mm 2 mps 615 mmHg 87%
    07:00 +8°C° 0 mm 2 mps 615 mmHg 81%
    08:00 +11°C° 0 mm 1 mps 616 mmHg 76%
    09:00 +12°C° 0 mm 1 mps 616 mmHg 70%
    10:00 +13°C° 0.1 mm 2 mps 616 mmHg 65%
    11:00 +14°C° 0.1 mm 2 mps 617 mmHg 59%
    12:00 +15°C° 0.1 mm 2 mps 617 mmHg 54%
    13:00 +15°C° 0.3 mm 2 mps 617 mmHg 53%
    14:00 +15°C° 0.3 mm 2 mps 616 mmHg 53%
    15:00 +15°C° 0.3 mm 2 mps 616 mmHg 52%
    16:00 +14°C° 0.2 mm 2 mps 615 mmHg 60%
    17:00 +12°C° 0.2 mm 1 mps 615 mmHg 67%
    18:00 +11°C° 0.2 mm 1 mps 614 mmHg 74%
    19:00 +10°C° 0 mm 1 mps 614 mmHg 76%
    20:00 +10°C° 0 mm 1 mps 614 mmHg 79%
    21:00 +9°C° 0 mm 1 mps 614 mmHg 81%
    22:00 +9°C° 0 mm 1 mps 614 mmHg 81%
    23:00 +9°C° 0 mm 1 mps 614 mmHg 81%

    23 October, Wednesday

    Time Temperature Precipitation Wind Pressure Humidity
    00:00 +8°C° 0 mm 1 mps 614 mmHg 82%
    01:00 +8°C° 0 mm 1 mps 614 mmHg 82%
    02:00 +8°C° 0 mm 1 mps 614 mmHg 82%
    03:00 +8°C° 0 mm 1 mps 614 mmHg 82%
    04:00 +7°C° 0 mm 1 mps 614 mmHg 81%
    05:00 +7°C° 0 mm 1 mps 613 mmHg 80%
    06:00 +7°C° 0 mm 1 mps 613 mmHg 80%
    07:00 +8°C° 0 mm 0 mps 614 mmHg 72%
    08:00 +10°C° 0 mm 0 mps 615 mmHg 64%
    09:00 +12°C° 0 mm 0 mps 616 mmHg 56%
    10:00 +14°C° 0 mm 1 mps 616 mmHg 51%
    11:00 +15°C° 0 mm 1 mps 616 mmHg 47%
    12:00 +17°C° 0 mm 2 mps 616 mmHg 43%
    13:00 +17°C° 0.1 mm 2 mps 616 mmHg 43%
    14:00 +17°C° 0.1 mm 2 mps 616 mmHg 43%
    15:00 +17°C° 0.1 mm 2 mps 615 mmHg 43%
    16:00 +15°C° 0.1 mm 1 mps 615 mmHg 50%
    17:00 +13°C° 0.1 mm 1 mps 614 mmHg 57%
    18:00 +11°C° 0.1 mm 1 mps 614 mmHg 64%
    19:00 +11°C° 0 mm 1 mps 614 mmHg 67%
    20:00 +11°C° 0 mm 1 mps 614 mmHg 70%
    21:00 +10°C° 0 mm 1 mps 614 mmHg 74%
    22:00 +10°C° 0 mm 1 mps 614 mmHg 74%
    23:00 +9°C° 0 mm 1 mps 614 mmHg 75%
    Show more